Showing default

ORBCOMM FM 103, 40091

Orbit data source: Space-Track

ORBCOMM FM 103, 40091 is a payload satellite owned by Orbcomm (US) in LEO that was launched on Mon, 14 Jul 2014 UTC via an FALCON 9 launch vehicle from the Air Force Eastern Test Range (AFETR). Payload-class satellites include a variety of spacecraft equipped with specific instruments for various scientific and technological missions. These include communications satellites like Starlink; space stations such as the ISS; scientific satellites like the Hubble; Earth observation satellites from companies like Planet Labs, Umbra, and HawkEye 360; GPS; miniature CubeSats for education and research; and military/defense satellites.

Loading next visibility...
Identifier
40091, 2014-040F
Orbit
LEO
Last TLE update
8 hours ago
Origin
Manufacturer
SNC Louisville
Mission
Non-operational Commercial Communications
Bus & Motor
SN-100A, Unknown motor
Mass
172 kg wet, 158 kg dry
Launch date (UTC)
2014-07-14 (11 years ago)
Launch vehicle
FALCON 9
Launch site
Air Force Eastern Test Range (AFETR)
Object type
Payload
Rocket body
Debris
Shape & HBR
Box + 1 Pan + 1 Ant, 13 m
Radar Cross Section
2.222 m², Medium (>0.1 m² and < 1m²)

Expand to show TLE details & history

TLE from 8 hours ago
0 ORBCOMM FM 103
1 40091U 14040F   25182.09554831  .00000274  00000-0  95307-4 0  9997
2 40091  47.0065 312.1200 0001860 317.0411  43.0329 14.58185461583199
Epoch: 2025-07-01T02:17Z
TLE epoch observation values (Epoch: 2025-07-01T02:17:35.373Z)
Latitude
-0.00005°
Longitude
-1.67335°
Altitude
698.293 km
Speed
7.509 km/s
True Right ascension
20h 48m 28s
True Declination
0° 00' 00"
Sunlit
Object was in full shadow at epoch
Visualization orbit readout
Latitude
-38.74514°
Longitude
-51.32158°
Altitude
709.789 km
Speed
7.502 km/s
Apparent Right ascension
14h 03m 06s
Apparent Declination
-56° 07' 35"
Sunlit
Object is in full shadow
Visualization observer readout
Local Sidereal Time
21:53:17
Azimuth
226.351° WSW
Elevation
-46.926°
Doppler factor
1
Orbital elements
Apogee altitude
701.589 km
Perigee altitude
698.956 km
Semi-major axis
7,078.41 km
Eccentricity
0.00019
Inclination
47.0065°
RAAN
312.12°
Arg. of periapsis
317.0411°
True anomaly
Unknown
Mean anomaly
43.0329°
Eccentric anomaly
Unknown
Mean motion
3.64451 °/min
Orbital period
98.78 mins
BSTAR
0.000095307
Loading maneuver chart data...
Loading SW <> Apogee altitude chart data...
Loading historical data...
Loading historical data...
Loading historical data...
Loading historical data...
Loading historical data...
Loading historical data...
Loading historical data...

ORBCOMM FM 103 Visibility forecast

Observer location: undefined°, undefined°

Span
Click to sort rows by Start time (UTC) header in descending order
Start Az.
Max El. time (UTC)
Max El. Az.
Max El.
End time (UTC)
End Az.
7 mins2025-07-01 10:39:52.836Z181.498° SSW2025-07-01 10:42:52.836Z142.398° SSE19.877°2025-07-01 10:46:52.836Z87.576° E
8 mins2025-07-01 12:22:52.836Z240.8° WSW2025-07-01 12:25:52.836Z242.019° WSW43.841°2025-07-01 12:30:52.836Z61.929° ENE
8 mins2025-07-01 14:06:52.836Z288.048° WNW2025-07-01 14:09:52.836Z338.75° N32.227°2025-07-01 14:14:52.836Z59.992° ENE
8 mins2025-07-01 15:50:52.836Z305.827° NW2025-07-01 15:54:52.836Z21.799° NNE32.839°2025-07-01 15:58:52.836Z79.758° E
8 mins2025-07-01 17:34:52.836Z296.748° NW2025-07-01 17:38:52.836Z137.768° SSE43.681°2025-07-01 17:42:52.836Z122.431° SE
5 mins2025-07-01 19:19:52.836Z249.08° W2025-07-01 19:21:52.836Z217.937° SW18.231°2025-07-01 19:24:52.836Z180.76° SSW
|